Location: Muenchen
(48.1800°N, 11.5800°E)
Time: 11:23:11
(UTC+01:00)

Tiros 1 - Visible Passes

Search period start: 23 March 2017 00:00
Search period end: 02 April 2017 01:00
Orbit: 630 x 665 km, 48.4° (Epoch: 21 March)

Date Brightness Start Highest point End Pass type
(mag) Time Alt. Az. Time Alt. Az. Time Alt. Az.
23 Mar 9.1 02:40:25 24° E 02:40:25 24° E 02:42:18 10° E visible
23 Mar 7.1 04:18:07 39° W 04:19:45 67° SSW 04:24:26 10° ESE visible
24 Mar 8.3 03:05:39 38° E 03:05:39 38° E 03:08:36 10° E visible
24 Mar 7.6 04:43:20 23° W 04:45:51 43° SSW 04:50:19 10° SE visible
25 Mar 7.5 03:30:59 54° SE 03:30:59 54° SE 03:34:48 10° ESE visible
25 Mar 8.3 05:08:41 14° W 05:11:48 25° SW 05:15:38 10° SSE visible
26 Mar 9.9 03:18:48 11° E 03:18:48 11° E 03:18:55 10° E visible
26 Mar 7.5 04:56:30 45° SSW 04:56:30 45° SSW 05:00:43 10° SE visible
27 Mar 9.6 03:44:31 14° ESE 03:44:31 14° ESE 03:45:08 10° ESE visible
27 Mar 8.2 05:22:14 27° SW 05:22:14 27° SW 05:26:06 10° SSE visible
28 Mar 9.5 04:10:30 13° SE 04:10:30 13° SE 04:11:05 10° SE visible
28 Mar 8.9 05:48:13 14° SW 05:48:13 14° SW 05:50:24 10° SSW visible
29 Mar 9.5 22:06:18 10° SSW 22:06:38 12° SSW 22:06:38 12° SSW visible
30 Mar 8.7 20:52:02 10° S 20:55:05 17° SE 20:55:23 17° SE visible
30 Mar 9.2 22:31:55 10° SW 22:33:08 18° SW 22:33:08 18° SW visible
31 Mar 8.0 21:16:43 10° SSW 21:20:55 31° SE 21:21:37 29° SE visible
31 Mar 9.2 22:57:57 10° WSW 22:59:22 19° WSW 22:59:22 19° WSW visible
01 Apr 7.3 21:42:16 10° SW 21:46:55 51° SSE 21:47:35 47° SE visible
01 Apr 9.5 23:24:12 10° W 23:25:19 17° W 23:25:19 17° W visible
